{"data":{"norad_id":64460,"intl_designator":"2025-130Y","name":"STARLINK-34423","alt_names":[],"object_type":"PAYLOAD","status":"ACTIVE","operator":null,"country":"US","launch_date":"2025-06-18","launch_site_code":"AFETR","launch_vehicle":null,"mission":null,"orbit_class":"UNKNOWN","rcs_meters":null,"size_class":null,"mass_kg":null,"dimensions":null,"purposes":["comms"],"wikipedia_slug":null,"has_3d_model":false,"image_url":null,"decayed_at":null,"tle_current":{"epoch":"2026-05-25T03:36:52.975296Z","epoch_age_seconds":55926,"freshness":"FRESH","line1":"1 64460U 25130Y   26145.15061314  .00009278  00000+0  32498-3 0  9994","line2":"2 64460  53.1565  93.0855 0001036  79.3956 280.7161 15.30201375 52410","mean_motion":15.30201375,"eccentricity":0.0001036,"inclination_deg":53.1565,"raan_deg":93.0855,"arg_perigee_deg":79.3956,"mean_anomaly_deg":280.7161,"bstar":0.00032498,"rev_number":5241,"period_min":94.105261145776,"perigee_km":474.50095707118,"apogee_km":475.92097076931,"semimajor_km":6853.3479639202,"source":"CELESTRAK","updated_at":"2026-05-25T13:38:20.453424Z"}}}